Weather reports worldwide

Advertisment
San Sebastian/Igueldo, Spain (8027): temperature & dewpoint: 16.09.2018 23:00:00 - 22.09.2018 23:00:00 (CEST)San Sebastian/Igueldo, Spain (8027): wind speed: 16.09.2018 23:00:00 - 22.09.2018 23:00:00 (CEST)San Sebastian/Igueldo, Spain (8027): wind direction: 16.09.2018 23:00:00 - 22.09.2018 23:00:00 (CEST)San Sebastian/Igueldo, Spain (8027): reduced air pressure: 16.09.2018 23:00:00 - 22.09.2018 23:00:00 (CEST)San Sebastian/Igueldo, Spain (8027): visibility: 16.09.2018 23:00:00 - 22.09.2018 23:00:00 (CEST)
Date & Time tt [°C] td [°C] ff [km/h] ff [kn] dd ppp [hPa] vv [km]
22.09.2018 23:00:00 20,1 15,5 8 4 SW 1024,4 35
22.09.2018 22:00:00 - - - - - - -
22.09.2018 21:00:00 - - - - - - -
22.09.2018 20:00:00 22,2 15,1 11 6 W 1023,0 45
22.09.2018 19:00:00 - - - - - - -
22.09.2018 18:00:00 - - - - - - -
22.09.2018 17:00:00 23,0 16,8 11 6 NW 1022,9 40
22.09.2018 16:00:00 - - - - - - -
22.09.2018 15:00:00 - - - - - - -
22.09.2018 14:00:00 22,5 18,7 4 2 NE 1022,9 30
22.09.2018 13:00:00 - - - - - - -
22.09.2018 12:00:00 - - - - - - -
22.09.2018 11:00:00 - - - - - - -
22.09.2018 10:00:00 - - - - - - -
22.09.2018 09:00:00 - - - - - - -
22.09.2018 08:00:00 16,3 16,3 5 3 SSE 1023,2 20
22.09.2018 07:00:00 - - - - - - -
22.09.2018 06:00:00 - - - - - - -
22.09.2018 05:00:00 17,2 16,9 9 5 SE 1023,4 20
22.09.2018 04:00:00 - - - - - - -
22.09.2018 03:00:00 - - - - - - -
22.09.2018 02:00:00 17,2 16,6 4 2 ENE 1024,1 12
22.09.2018 01:00:00 - - - - - - -
22.09.2018 00:00:00 - - - - - - -
21.09.2018 23:00:00 17,4 17,1 8 4 NNE 1023,9 12
21.09.2018 22:00:00 - - - - - - -
21.09.2018 21:00:00 - - - - - - -
21.09.2018 20:00:00 18,0 17,7 8 4 NNW 1023,2 8
21.09.2018 19:00:00 - - - - - - -
21.09.2018 18:00:00 - - - - - - -
21.09.2018 17:00:00 19,7 15,6 24 13 WNW 1022,2 35
21.09.2018 16:00:00 - - - - - - -
21.09.2018 15:00:00 - - - - - - -
21.09.2018 14:00:00 22,4 13,2 15 8 WNW 1021,2 40
21.09.2018 13:00:00 - - - - - - -
21.09.2018 12:00:00 - - - - - - -
21.09.2018 11:00:00 19,8 18,5 8 4 SSE 1020,6 30
21.09.2018 10:00:00 - - - - - - -
21.09.2018 09:00:00 - - - - - - -
21.09.2018 08:00:00 17,8 17,5 4 2 S 1018,6 15
21.09.2018 07:00:00 - - - - - - -
21.09.2018 06:00:00 - - - - - - -
21.09.2018 05:00:00 18,8 16,2 4 2 ESE 1017,8 12
21.09.2018 04:00:00 - - - - - - -
21.09.2018 03:00:00 - - - - - - -
21.09.2018 02:00:00 18,7 17,0 5 3 SSE 1017,8 15
21.09.2018 01:00:00 - - - - - - -
21.09.2018 00:00:00 - - - - - - -
20.09.2018 23:00:00 19,4 18,4 4 2 SSW 1018,0 15
20.09.2018 22:00:00 - - - - - - -
20.09.2018 21:00:00 - - - - - - -
20.09.2018 20:00:00 19,6 17,9 16 9 WNW 1017,1 15
20.09.2018 19:00:00 - - - - - - -
20.09.2018 18:00:00 - - - - - - -
20.09.2018 17:00:00 22,7 18,5 8 4 NW 1016,6 20
20.09.2018 16:00:00 - - - - - - -
20.09.2018 15:00:00 - - - - - - -
20.09.2018 14:00:00 21,2 17,4 8 4 NNW 1018,7 15
20.09.2018 13:00:00 - - - - - - -
20.09.2018 12:00:00 - - - - - - -
20.09.2018 11:00:00 20,4 17,4 4 2 NNW 1019,6 20
20.09.2018 10:00:00 - - - - - - -
20.09.2018 09:00:00 - - - - - - -
20.09.2018 08:00:00 18,2 17,0 9 5 ENE 1020,6 15
20.09.2018 07:00:00 - - - - - - -
20.09.2018 06:00:00 - - - - - - -
20.09.2018 05:00:00 18,8 17,8 8 4 NE 1021,5 25
20.09.2018 04:00:00 - - - - - - -
20.09.2018 03:00:00 - - - - - - -
20.09.2018 02:00:00 19,2 18,0 4 2 ENE 1022,1 20
20.09.2018 01:00:00 - - - - - - -
20.09.2018 00:00:00 - - - - - - -
19.09.2018 23:00:00 19,4 18,7 5 3 NNW 1022,1 20
19.09.2018 22:00:00 - - - - - - -
19.09.2018 21:00:00 - - - - - - -
19.09.2018 20:00:00 20,0 18,7 2 1 NNW 1021,4 15
19.09.2018 19:00:00 - - - - - - -
19.09.2018 18:00:00 - - - - - - -
19.09.2018 17:00:00 21,4 18,6 13 7 NW 1020,9 20
19.09.2018 16:00:00 - - - - - - -
19.09.2018 15:00:00 - - - - - - -
19.09.2018 14:00:00 21,4 17,8 9 5 NNW 1020,9 30
19.09.2018 13:00:00 - - - - - - -
19.09.2018 12:00:00 - - - - - - -
19.09.2018 11:00:00 19,8 17,9 4 2 WNW 1021,3 11
19.09.2018 10:00:00 - - - - - - -
19.09.2018 09:00:00 - - - - - - -
19.09.2018 08:00:00 18,2 16,9 4 2 E 1019,9 15
19.09.2018 07:00:00 - - - - - - -
19.09.2018 06:00:00 - - - - - - -
19.09.2018 05:00:00 18,0 17,4 9 5 SSE 1019,9 18
19.09.2018 04:00:00 - - - - - - -
19.09.2018 03:00:00 - - - - - - -
19.09.2018 02:00:00 18,8 17,8 4 2 ESE 1019,8 15
19.09.2018 01:00:00 - - - - - - -
19.09.2018 00:00:00 - - - - - - -
18.09.2018 23:00:00 18,2 17,2 0 0 N 1019,6 15
18.09.2018 22:00:00 - - - - - - -
18.09.2018 21:00:00 - - - - - - -
18.09.2018 20:00:00 19,6 18,3 11 6 NW 1017,7 12
18.09.2018 19:00:00 - - - - - - -
18.09.2018 18:00:00 - - - - - - -
18.09.2018 17:00:00 20,4 18,9 15 8 NNE 1016,9 12
18.09.2018 16:00:00 - - - - - - -
18.09.2018 15:00:00 - - - - - - -
18.09.2018 14:00:00 19,8 18,5 11 6 WNW 1017,4 40
18.09.2018 13:00:00 - - - - - - -
18.09.2018 12:00:00 - - - - - - -
18.09.2018 11:00:00 20,2 18,3 5 3 WNW 1017,4 40
18.09.2018 10:00:00 - - - - - - -
18.09.2018 09:00:00 - - - - - - -
18.09.2018 08:00:00 18,5 16,3 4 2 SW 1015,6 30
18.09.2018 07:00:00 - - - - - - -
18.09.2018 06:00:00 - - - - - - -
18.09.2018 05:00:00 18,8 16,2 11 6 W 1015,6 45
18.09.2018 04:00:00 - - - - - - -
18.09.2018 03:00:00 - - - - - - -
18.09.2018 02:00:00 - - - - - - -
18.09.2018 01:00:00 - - - - - - -
18.09.2018 00:00:00 - - - - - - -
17.09.2018 23:00:00 23,4 13,0 15 8 SW 1015,0 50
17.09.2018 22:00:00 - - - - - - -
17.09.2018 21:00:00 - - - - - - -
17.09.2018 20:00:00 29,3 13,9 15 8 SE 1011,7 50
17.09.2018 19:00:00 - - - - - - -
17.09.2018 18:00:00 - - - - - - -
17.09.2018 17:00:00 31,6 15,1 21 11 SSE 1012,7 50
17.09.2018 16:00:00 - - - - - - -
17.09.2018 15:00:00 - - - - - - -
17.09.2018 14:00:00 28,9 16,1 35 19 SSE 1014,2 35
17.09.2018 13:00:00 - - - - - - -
17.09.2018 12:00:00 - - - - - - -
17.09.2018 11:00:00 24,9 16,3 29 16 SSE 1015,5 30
17.09.2018 10:00:00 - - - - - - -
17.09.2018 09:00:00 - - - - - - -
17.09.2018 08:00:00 17,8 17,5 5 3 ENE 1017,1 12
17.09.2018 07:00:00 - - - - - - -
17.09.2018 06:00:00 - - - - - - -
17.09.2018 05:00:00 18,3 17,3 4 2 ESE 1018,7 20
17.09.2018 04:00:00 - - - - - - -
17.09.2018 03:00:00 - - - - - - -
17.09.2018 02:00:00 18,6 17,6 4 2 S 1020,3 20
17.09.2018 01:00:00 - - - - - - -
17.09.2018 00:00:00 - - - - - - -
16.09.2018 23:00:00 19,0 17,1 5 3 WNW 1021,4 20

tt = temperature
td = dewpoint
ff = wind speed
dd = wind direction
ppp = reduced air pressure
vv = visibility

Next stations